Regional Weather Roundup
Issued by NWS

Home | Current Version | Previous Version | Graphics & Text | Print | Product List | Glossary On
Versions: 1 2 3 4 5 6 7 8 9 10 11 12 13 14 15 16 17 18 19 20 21 22 23 24 25 26 27 28 29 30 31 32 33 34 35 36 37 38 39 40 41 42 43 44 45 46 47 48 49 50
000
ASUS43 KTOP 032308
RWRKS

WEATHER ROUNDUP FOR KANSAS
NATIONAL WEATHER SERVICE GOODLAND KS
500 PM CST TUE MAR 03 2015

NOTE:  "FAIR" INDICATES FEW OR NO CLOUDS BELOW 12,000 FEET WITH NO
SIGNIFICANT WEATHER AND/OR OBSTRUCTIONS TO VISIBILITY.

KSZ001>006-013>018-027>032-041>047-040000-
NORTHWEST KANSAS

CITY           SKY/WX    TMP DP  RH WIND       PRES   REMARKS
GOODLAND       SUNNY     31  14  49 N14G22    29.86F WCI  21
HAYS           CLOUDY    36  14  41 N17       29.90R WCI  25
HILL CITY      CLOUDY    34  13  41 N18       29.93S WCI  23
RUSSELL        CLOUDY    37  18  46 N20       29.89R WCI  27
$$

KSZ061>065-074>080-084>089-040000-
SOUTHWEST KANSAS

CITY           SKY/WX    TMP DP  RH WIND       PRES   REMARKS
DODGE CITY     CLOUDY    37  25  61 NE16      29.89R WCI  28
ELKHART          N/A     36  28  73 NE16        N/A  WCI  26
GARDEN CITY    CLOUDY    35  24  64 NE20      29.86F WCI  24
GREAT BEND     CLOUDY    37  19  48 N16G22    29.90R WCI  28
LIBERAL        CLOUDY    39  30  70 NE18      29.83F WCI  30
PRATT          CLOUDY    41  28  60 N9        29.91R
$$

KSZ066>073-081>083-090>101-040000-
SOUTHEAST KANSAS

CITY           SKY/WX    TMP DP  RH WIND       PRES   REMARKS
CHANUTE        CLOUDY    47  37  68 N14       29.85R
COFFEYVILLE    CLOUDY    50  40  68 N9        29.84S
HUTCHINSON     CLOUDY    45  27  49 N10G17    29.88R
MEDICINE LODGE   N/A     45  29  53 NE13      29.87R
NEWTON         CLOUDY    41  27  56 NE14      29.87F
PARSONS        CLOUDY    49  41  74 W3        29.86R
WICHITA INTL   CLOUDY    44  28  53 NE12      29.86F
WICHITA JABRA  CLOUDY    43  28  55 NE9       29.85F
WICHITA MCCONL CLOUDY    44  29  56 NE14      29.86F
WINFIELD       CLOUDY    47  35  63 N10       29.86S
$$

KSZ007>012-019>026-033>040-048>060-102>105-040000-
NORTHEAST KANSAS

CITY           SKY/WX    TMP DP  RH WIND       PRES   REMARKS
CONCORDIA      CLOUDY    34  17  50 N14       29.92R WCI  25
EMPORIA        CLOUDY    42  28  57 N9        29.88R
LAWRENCE       CLOUDY    42  27  55 N12       29.89R
MANHATTAN      CLOUDY    37  24  59 N13G20    29.91R WCI  29
MARYSVILLE     PTSUNNY   34  21  60 N21       29.91R WCI  22
OLATHE IND     CLOUDY    40  29  64 N8        29.90R
OLATHE EXE     CLOUDY    41  29  62 N10       29.87R
SALINA         CLOUDY    39  20  46 N21       29.91R WCI  29
TOPEKA BILLARD CLOUDY    43  27  53 N13       29.89R
TOPEKA FORBES  CLOUDY    44  27  51 N12       29.87R
$$


USA.gov is the U.S. government's official web portal to all federal, state and local government web resources and services.